Springfield, IL

12:38 AM CDT on May 27, 2017 (GMT -0500)
Capital

Weather History for KSPI - October, 2013

Change the Weather History Date:

Thursday, October 24, 2013

  Actual Average Record
Temperature  
Mean Temperature 35 °F 52 °F  
Max Temperature 45 °F 63 °F 83 °F (1963)
Min Temperature 25 °F 42 °F 23 °F (1981)
Degree Days  
Heating Degree Days 30 13  
Month to date heating degree days 241 230  
Since 1 July heating degree days 291 311  
Cooling Degree Days 0 0  
Month to date cooling degree days 45 19  
Year to date cooling degree days 1145 1118  
Moisture  
Dew Point 25 °F    
Average Humidity 67    
Maximum Humidity 92    
Minimum Humidity 41    
Precipitation  
Precipitation T in 0.11 in 1.12 in (1918)
Month to date precipitation 1.33 2.43  
Year to date precipitation 33.25 30.98  
Snow  
Snow T in 0.00 in T in (2013)
Month to date snowfall T 0.0  
Since 1 July snowfall T 0.0  
Since 1 September snowfall T 0.0  
Snow Depth 0.00 in    
Sea Level Pressure  
Sea Level Pressure 30.25 in    
Wind  
Wind Speed 9 mph (WNW)    
Max Wind Speed 20 mph    
Max Gust Speed 25 mph    
Visibility 10 miles    
Events      
T = Trace of Precipitation, MM = Missing Value Source: NWS Daily Summary

Daily Weather History Graph

Daily Weather History Graph

Search for Another Location

Airport or City:

Trip Planner

Search our weather history database for the weather conditions in past years. The results will help you decide how hot, cold, wet, or windy it might be!

Date:

Astronomy

Oct. 24, 2013 Rise Set
Actual Time 7:18 AM CDT 6:06 PM CDT
Civil Twilight 6:51 AM CDT 6:33 PM CDT
Nautical Twilight 6:19 AM CDT 7:05 PM CDT
Astronomical Twilight 5:48 AM CDT 7:36 PM CDT
Moon 10:30 PM CDT (10/24) 12:19 PM CDT (10/24)
Length of Visible Light 11h 42m
Length of Day
10h 47m
Waning Gibbous, 71% of the Moon is Illuminated
Oct 24
Waning Gibbous
Oct 26
Last Quarter
Nov 3
New
Nov 9
First Quarter
Nov 17
Full

Hourly Weather History & Observations

Time (CDT) Temp. Windchill Dew Point Humidity Pressure Visibility Wind Dir Wind Speed Gust Speed Precip Events Conditions
12:52 AM 33.1 °F - 30.0 °F 89% 30.12 in 10.0 mi Calm Calm - N/A   Mostly Cloudy
1:52 AM 35.1 °F 31.0 °F 32.0 °F 89% 30.12 in 10.0 mi WSW 4.6 mph - N/A   Overcast
2:52 AM 37.9 °F 33.5 °F 35.1 °F 89% 30.12 in 10.0 mi West 5.8 mph - N/A   Overcast
3:52 AM 39.0 °F 34.0 °F 35.1 °F 86% 30.12 in 10.0 mi West 6.9 mph - N/A   Overcast
3:59 AM 39.2 °F 33.6 °F 35.6 °F 87% 30.11 in 10.0 mi West 8.1 mph - N/A   Overcast
4:52 AM 39.0 °F 32.3 °F 34.0 °F 82% 30.14 in 10.0 mi WNW 10.4 mph - N/A   Overcast
5:32 AM 37.4 °F 29.8 °F 30.2 °F 75% 30.14 in 10.0 mi NNW 11.5 mph 20.7 mph N/A   Overcast
5:52 AM 37.9 °F 32.1 °F 28.9 °F 70% 30.16 in 10.0 mi NW 8.1 mph - N/A   Overcast
6:52 AM 37.0 °F 30.4 °F 23.0 °F 57% 30.18 in 10.0 mi NW 9.2 mph - N/A   Overcast
7:52 AM 37.0 °F 30.4 °F 21.9 °F 54% 30.20 in 10.0 mi WNW 9.2 mph - N/A   Overcast
8:52 AM 37.9 °F 32.7 °F 25.0 °F 60% 30.23 in 10.0 mi WNW 6.9 mph - N/A   Overcast
9:52 AM 39.0 °F 32.8 °F 25.0 °F 57% 30.25 in 10.0 mi NW 9.2 mph 18.4 mph N/A   Overcast
10:52 AM 43.0 °F 36.8 °F 21.9 °F 43% 30.26 in 10.0 mi NW 11.5 mph 23.0 mph N/A   Scattered Clouds
11:52 AM 41.0 °F 34.3 °F 19.0 °F 41% 30.28 in 10.0 mi NW 11.5 mph 23.0 mph N/A   Mostly Cloudy
12:52 PM 41.0 °F 34.3 °F 21.0 °F 45% 30.29 in 10.0 mi NW 11.5 mph 20.7 mph N/A   Overcast
1:52 PM 43.0 °F 36.0 °F 21.9 °F 43% 30.28 in 10.0 mi NW 13.8 mph 20.7 mph N/A   Overcast
2:52 PM 42.1 °F 33.9 °F 21.9 °F 45% 30.29 in 10.0 mi NNW 17.3 mph 24.2 mph N/A   Overcast
3:52 PM 42.1 °F 33.6 °F 21.0 °F 43% 30.30 in 10.0 mi NW 18.4 mph 25.3 mph N/A   Partly Cloudy
4:52 PM 39.0 °F 31.4 °F 21.0 °F 49% 30.33 in 10.0 mi NW 12.7 mph 20.7 mph N/A   Mostly Cloudy
5:52 PM 39.0 °F 31.8 °F 21.9 °F 50% 30.35 in 10.0 mi NW 11.5 mph 19.6 mph N/A   Overcast
6:52 PM 37.9 °F 32.7 °F 23.0 °F 55% 30.36 in 10.0 mi NW 6.9 mph - N/A   Overcast
7:52 PM 33.1 °F 30.0 °F 21.9 °F 64% 30.37 in 10.0 mi WNW 3.5 mph - N/A   Clear
8:52 PM 28.9 °F 25.2 °F 23.0 °F 78% 30.38 in 10.0 mi West 3.5 mph - N/A   Clear
9:52 PM 28.0 °F 21.7 °F 23.0 °F 81% 30.39 in 10.0 mi WSW 5.8 mph - N/A   Clear
10:52 PM 26.1 °F - 21.9 °F 84% 30.40 in 10.0 mi Calm Calm - N/A   Clear
11:52 PM 27.0 °F 20.5 °F 23.0 °F 85% 30.41 in 10.0 mi WSW 5.8 mph - N/A   Clear